Effective Sunday, March 17, 2024, the National Weather Service National Data Buoy Center will discontinue its Dial-A-Buoy Interactive Voice Response system. For more information, see Service Change Notice 24-06 (PDF).

Station 41043 - NE PUERTO RICO - 170 NM NNE of San Juan, PR Image indicating link to RSS feed of recent meteorological observations for station 41043


Conditions at 41043 as of
(12:30 am AST)
0430 GMT on 02/25/2024:
     

Click on the graph icon in the table below to see a time series plot of the last five days of that observation.

5-day plot - Wind Direction Wind Direction (WDIR): E ( 90 deg true )
5-day plot - Wind Speed Wind Speed (WSPD):2.0 m/s
5-day plot - Wind Gust Wind Gust (GST):4.0 m/s
5-day plot - Atmospheric Pressure Atmospheric Pressure (PRES):1018.0 mb
5-day plot - Air Temperature Air Temperature (ATMP): 25.3 °C
5-day plot - Water Temperature Water Temperature (WTMP): 26.3 °C
5-day plot - Dew Point Dew Point (DEWP): 22.5 °C
5-day plot - Heat Index Heat Index (HEAT): 26.4 °C
5-day plot - Wind Speed at 10 Meters Wind Speed at 10 meters (WSPD10M): 2 m/s
5-day plot - Wind Speed at 20 Meters Wind Speed at 20 meters (WSPD20M): 3 m/s
5-day plot -  Wind Speed, Wind Gust and Atmospheric Pressure Combined plot of Wind Speed, Gust, and Air Pressure
Supplemental Measurements
Highest 1-minute Wind Speed
Time (AST)5-day plot - 1-Minute Wind Speed WSPD 5-day plot - 1-Minute Wind Direction WDIR
12:29 am 3 m/s-
Previous observations
TIME
(AST)
5-day plot - Wind Direction
WDIR
 
5-day plot - Wind Speed
WSPD
m/s
5-day plot - Wind Gust
GST
m/s
5-day plot - Wave Height
WVHT
m
5-day plot - Dominant Wave Period
DPD
sec
5-day plot - Average Wave Period
APD
sec
5-day plot - Mean Wave Direction
MWD
 
5-day plot - Atmospheric Pressure
PRES
mb
5-day plot - Pressure Tendency
PTDY
mb
5-day plot - Air Temperature
ATMP
°C
5-day plot - Water Temperature
WTMP
°C
5-day plot - Dew Point
DEWP
°C
5-day plot - Salinity
SAL
psu
5-day plot - Visibility
VIS
km
5-day plot - Tide (above MLLW)
TIDE
m
2024-02-25 12:20 am E 2.0 4.0 1.7 97.8 E1018.1- 25.3 26.3 22.5---
2024-02-25 12:10 am E 3.0 4.0 1.7-7.8 E1018.1- 25.3 26.3 22.6---
2024-02-25 12:00 am E 3.0 4.0----1018.1 +0.5 25.3 26.3 22.5---
2024-02-24 11:50 pm E 3.0 4.0 1.8 108.2ENE1018.2- 25.3 26.3 22.5---
2024-02-24 11:40 pm E 3.0 4.0 1.8-8.2ENE1018.2- 25.3 26.3 22.4---
2024-02-24 11:30 pm E 3.0 4.0----1018.3- 25.3 26.3 22.4---
2024-02-24 11:20 pm E 3.0 4.0 1.8 108.2ENE1018.3- 25.4 26.3 22.4---
2024-02-24 11:10 pm E 2.0 3.0 1.8-8.2ENE1018.4- 25.3 26.3 22.3---
2024-02-24 11:00 pm E 2.0 3.0----1018.4 +1.4 25.4 26.3 22.4---
2024-02-24 10:50 pm E 2.0 3.0 1.7 98.0ENE1018.4- 25.4 26.3 22.3---
2024-02-24 10:40 pm E 2.0 3.0 1.7-8.0ENE1018.4- 25.4 26.3 22.3---
2024-02-24 10:30 pm E 2.0 3.0----1018.3- 25.4 26.3 22.2---
2024-02-24 10:20 pm E 1.0 2.0 1.8 108.1NNE1018.4- 25.4 26.3 22.2---
2024-02-24 10:10 pmESE 1.0 2.0 1.8-8.1NNE1018.4- 25.4 26.3 22.1---
2024-02-24 10:00 pmESE 1.0 2.0----1018.4 +1.9 25.4 26.3 22.1---
2024-02-24 09:50 pm E 1.0 3.0 1.6 87.9 E1018.3- 25.4 26.3 22.1---
2024-02-24 09:40 pmESE 2.0 3.0 1.6-7.9 E1018.2- 25.4 26.3 22.1---
2024-02-24 09:30 pmESE 2.0 4.0----1018.1- 25.4 26.3 22.1---
2024-02-24 09:20 pmESE 3.0 4.0 1.7 98.0 NE1017.9- 25.4 26.4 22.2---
2024-02-24 09:10 pmESE 3.0 4.0 1.7-8.0 NE1017.9- 25.4 26.4 22.2---
2024-02-24 09:00 pm SE 3.0 5.0----1017.8 +1.7 25.4 26.4 22.1---
2024-02-24 08:50 pm SE 3.0 5.0 1.7 107.8NNE1017.6- 25.5 26.4 22.3---
2024-02-24 08:40 pm SE 3.0 5.0 1.7-7.8NNE1017.5- 25.4 26.4 22.0---
2024-02-24 08:30 pmESE 4.0 5.0----1017.4- 25.4 26.4 22.1---
2024-02-24 08:20 pmESE 4.0 5.0 1.7 97.8 NE1017.2- 25.4 26.4 22.0---
2024-02-24 08:10 pmESE 4.0 5.0 1.7-7.8 NE1017.1- 25.4 26.4 22.0---
2024-02-24 08:00 pmESE 3.0 5.0----1017.0 +1.1 25.4 26.4 22.0---
2024-02-24 07:50 pmESE 3.0 5.0 1.8 118.0 N1016.9- 25.4 26.4 22.0---
2024-02-24 07:40 pm SE 3.0 4.0----1016.8- 25.4 26.4 21.8---
2024-02-24 07:10 pmESE 3.0 5.0 1.9-8.0 NE1016.5- 25.4 26.5 21.8---
2024-02-24 07:00 pmESE 3.0 5.0----1016.5 +0.9 25.4- 21.7---
2024-02-24 06:50 pm SE 3.0 5.0 2.0 98.1ENE1016.3- 25.4 26.4 21.6---
2024-02-24 06:40 pm SE 4.0 5.0----1016.2- 25.4 26.4 21.6---
2024-02-24 06:30 pm SE 3.0 5.0----1016.1- 25.4 26.4 21.5---
2024-02-24 06:20 pm SE 3.0 4.0 1.8 107.9NNE1016.1- 25.4 26.4 21.5---
2024-02-24 06:10 pmESE 4.0 5.0 1.8-7.9NNE1016.0- 25.4 26.4 21.3---
2024-02-24 06:00 pmESE 4.0 5.0----1015.9 +0.4 25.4 26.4 21.3---
2024-02-24 05:50 pmESE 3.0 5.0 2.0 118.3 N1016.0- 25.5 26.5 21.3---
2024-02-24 05:40 pm SE 3.0 4.0 2.0-8.3 N1016.0- 25.5 26.5 21.1---
2024-02-24 05:30 pm SE 3.0 5.0----1015.9- 25.7 26.5 21.2---
2024-02-24 05:20 pm SE 3.0 4.0 1.9 87.8 NE1015.9- 25.7 26.5 21.1---
2024-02-24 05:10 pm SE 3.0 4.0----1015.9- 25.7 26.5 20.9---
2024-02-24 05:00 pm SE 2.0 4.0----1015.7 +0.0 25.8 26.5 21.0---
2024-02-24 04:50 pmSSE 2.0 4.0 1.8 118.0 N1015.8- 25.8 26.6 20.9---
2024-02-24 04:40 pmSSE 3.0 4.0----1015.8- 25.7 26.6 21.0---
2024-02-24 04:30 pm SE 3.0 4.0----1015.7- 25.7 26.6 21.0---
2024-02-24 04:20 pmSSE 3.0 4.0 1.9 97.7 NE1015.6- 25.7 26.6 21.0---
2024-02-24 04:10 pm SE 2.0 4.0 1.9-7.7 NE1015.6- 25.6 26.6 20.7---
2024-02-24 04:00 pm SE 3.0 5.0----1015.6 -1.1 25.6 26.6 20.8---
2024-02-24 03:50 pmSSE 2.0 4.0 1.9 117.9 N1015.6- 25.7 26.6 20.7---
2024-02-24 03:40 pm SE 2.0 4.0----1015.6- 25.6 26.6 20.6---
2024-02-24 03:30 pmSSE 3.0 5.0----1015.5- 25.6 26.5 20.6---
2024-02-24 03:20 pmSSE 2.0 4.0 1.9 107.9 N1015.5- 25.7 26.5 20.5---
2024-02-24 03:10 pmSSE 2.0 4.0 1.9-7.9 N1015.5- 25.7 26.6 20.3---
2024-02-24 03:00 pmSSE 2.0 4.0----1015.5 -1.8 25.7 26.6 20.3---
2024-02-24 02:50 pmSSE 2.0 4.0 1.8 97.6ENE1015.7- 25.6 26.6 20.2---
2024-02-24 02:40 pmSSE 2.0 4.0----1015.7- 25.6 26.5 20.3---
2024-02-24 02:30 pm SE 3.0 5.0----1015.7- 25.5 26.5 20.0---
2024-02-24 02:20 pmSSE 2.0 5.0 1.8 97.8 NE1015.8- 25.5 26.5 19.9---
2024-02-24 02:10 pm SE 3.0 5.0 1.8-7.8 NE1015.9- 25.5 26.5 20.1---
2024-02-24 02:00 pmSSE 3.0 5.0----1015.9 -2.1 25.4 26.5 20.0---
2024-02-24 01:50 pm SE 3.0 4.0 2.0 87.8ENE1016.0- 25.4 26.5 20.0---
2024-02-24 01:40 pm SE 3.0 4.0 2.0-7.8ENE1016.2- 25.4 26.5 20.2---
2024-02-24 01:30 pmSSE 3.0 5.0----1016.4- 25.5 26.4 20.2---
2024-02-24 01:20 pm SE 3.0 5.0 1.8 97.5 NE1016.5- 25.4 26.4 19.9---
2024-02-24 01:10 pmSSE 3.0 5.0 1.8-7.5 NE1016.6- 25.4 26.4 19.9---
2024-02-24 01:00 pm SE 4.0 5.0----1016.6 -1.2 25.3 26.4 19.8---
2024-02-24 12:50 pm SE 4.0 6.0 1.8 97.4ENE1016.7- 25.3 26.4 19.8---
2024-02-24 12:40 pm SE 4.0 5.0----1016.8- 25.3 26.4 19.8---
2024-02-24 12:30 pm SE 4.0 5.0----1017.0- 25.3 26.4 19.6---
2024-02-24 12:20 pm SE 4.0 6.0 2.0 97.6 NE1017.1- 25.3 26.4 19.6---
2024-02-24 12:10 pm SE 4.0 5.0 2.0-7.6 NE1017.3- 25.3 26.3 19.5---
2024-02-24 12:00 pm SE 4.0 6.0----1017.3 +0.0 25.3 26.3 19.4---
2024-02-24 11:50 am SE 4.0 6.0 1.7 97.1ENE1017.3- 25.3 26.3 19.1---
2024-02-24 11:40 am SE 4.0 6.0 1.7-7.1ENE1017.5- 25.3 26.3 19.0---
2024-02-24 11:30 amSSE 3.0 5.0----1017.8- 25.3 26.3 18.9---
2024-02-24 11:20 amSSE 4.0 7.0----1017.9- 25.3 26.3 18.7---
2024-02-24 11:10 am SE 4.0 6.0 1.9-7.5ENE1018.0- 25.3 26.3 18.8---
2024-02-24 11:02 am--- 1.9 9----------
2024-02-24 11:00 am SE 4.0 6.0----1017.9 +1.5 25.3 26.2 18.7---
2024-02-24 10:50 am SE 5.0 7.0 1.9 97.3NNE1018.0- 25.3 26.2 18.6---
2024-02-24 10:40 am SE 4.0 6.0----1018.0- 25.3 26.2 18.5---
2024-02-24 10:30 am SE 5.0 6.0----1017.9- 25.3 26.2 18.5---
2024-02-24 10:20 am SE 5.0 6.0 2.0 97.6ENE1017.9- 25.3 26.2 18.3---
2024-02-24 10:10 amESE 5.0 7.0 2.0-7.6ENE1017.8- 25.3 26.2 18.2---
2024-02-24 10:00 am SE 5.0 6.0----1017.8 +1.8 25.3 26.2 17.9---
2024-02-24 09:50 am SE 5.0 7.0----1017.8- 25.3 26.2 17.9---
2024-02-24 09:40 am SE 5.0 6.0 2.0-7.3 E1017.6- 25.3 26.2 17.9---
2024-02-24 09:32 am--- 2.0 8----------
2024-02-24 09:30 am SE 5.0 7.0----1017.6- 25.3 26.2 17.9---
2024-02-24 09:20 am SE 4.0 6.0 1.9 97.4NNE1017.5- 25.3 26.2 18.1---
2024-02-24 09:10 am SE 5.0 7.0 1.9-7.4NNE1017.4- 25.3 26.2 17.7---
2024-02-24 09:00 amESE 5.0 6.0----1017.3 +1.7 25.3 26.2 18.0---
2024-02-24 08:50 amESE 5.0 6.0 2.0 97.7 NE1017.1- 25.3 26.2 18.0---
2024-02-24 08:40 am SE 5.0 7.0 2.0-7.7 NE1017.0- 25.3 26.2 18.1---
2024-02-24 08:30 am SE 5.0 7.0----1016.9- 25.3 26.2 18.3---
2024-02-24 08:20 amESE 4.0 6.0 2.0 97.4NNE1016.8- 25.3 26.2 18.4---
2024-02-24 08:10 amESE 4.0 7.0 2.0-7.4NNE1016.6- 25.3 26.2 18.5---
2024-02-24 08:00 am SE 4.0 6.0----1016.5 +1.3 25.2 26.2 18.4---
2024-02-24 07:50 am SE 4.0 7.0 1.9 97.4 NE1016.3- 25.2 26.2 18.5---
2024-02-24 07:40 am SE 5.0 7.0----1016.3- 25.1 26.2 18.7---
2024-02-24 07:30 am SE 5.0 7.0----1016.2- 25.1- 18.6---
2024-02-24 07:20 am SE 5.0 7.0 1.8 117.5 N1016.2- 25.0 26.2 19.2---
2024-02-24 07:10 am SE 5.0 7.0 1.8-7.5 N1016.2- 25.0 26.2 19.3---
2024-02-24 07:00 amESE 5.0 6.0----1016.1 +0.9 24.9 26.2 19.4---
2024-02-24 06:50 am SE 5.0 7.0 1.9 97.5 NE1015.9- 24.9 26.2 19.5---
2024-02-24 06:40 am SE 5.0 7.0 1.9-7.5 NE1015.8- 24.8 26.2 19.5---
2024-02-24 06:30 amESE 4.0 7.0----1015.8- 24.8 26.2 19.7---
2024-02-24 06:20 amESE 3.0 5.0 1.9 87.4 NE1015.9- 24.9- 19.5---
2024-02-24 06:10 am SE 4.0 5.0 1.9-7.4 NE1015.9- 24.9 26.2 19.6---
2024-02-24 06:00 am E 3.0 5.0----1015.7 +0.4 24.8 26.2 19.4---
2024-02-24 05:50 am E 3.0 5.0----1015.6- 24.8 26.2 19.4---
2024-02-24 05:40 amESE 3.0 4.0 1.9-7.6ENE1015.6- 24.7 26.2 19.7---
2024-02-24 05:32 am--- 1.9 8----------
2024-02-24 05:30 amESE 3.0 5.0----1015.6- 24.7 26.2 19.8---
2024-02-24 05:20 amESE 4.0 6.0 2.0 107.6 N1015.5- 24.7 26.2 19.8---
2024-02-24 05:10 am SE 3.0 5.0 2.0-7.6 N1015.4- 24.7 26.2 19.4---
2024-02-24 05:00 amESE 3.0 4.0----1015.4 -0.7 24.7 26.2 19.1---
2024-02-24 04:50 amESE 3.0 5.0 2.2 87.6ENE1015.3- 24.7 26.2 19.1---
2024-02-24 04:40 am E 3.0 5.0 2.2-7.6ENE1015.2- 24.7 26.2 19.1---
2024-02-24 04:30 am E 3.0 5.0----1015.2- 24.7 26.2 19.1---
2024-02-24 04:20 amESE 3.0 5.0 2.0 87.5 N1015.2- 24.6 26.2 19.4---
2024-02-24 04:10 amESE 3.0 5.0 2.0-7.5 N1015.2- 24.5 26.2 19.6---
2024-02-24 04:00 amESE 3.0 5.0----1015.2 -1.2 24.4- 19.6---
2024-02-24 03:50 amESE 3.0 5.0 2.1 87.6 N1015.3- 24.4 26.2 20.0---
2024-02-24 03:40 amESE 4.0 6.0----1015.2- 24.3 26.2 19.7---
2024-02-24 03:30 am E 3.0 5.0----1015.3- 24.4 26.2 20.1---
2024-02-24 03:20 am E 4.0 5.0 2.0 97.5 N1015.3- 24.3 26.2 19.6---
2024-02-24 03:10 am E 4.0 6.0 2.0-7.5 N1015.2- 24.3 26.2 19.8---
2024-02-24 03:00 amESE 3.0 5.0----1015.3 -1.4 24.3- 19.5---
2024-02-24 02:50 amESE 4.0 6.0 2.2 97.5NNE1015.4- 24.3 26.2 19.5---
2024-02-24 02:40 amESE 3.0 5.0----1015.4- 24.4 26.2 19.7---
2024-02-24 02:30 amESE 3.0 5.0----1015.5- 24.3 26.2 19.3---
2024-02-24 02:20 amESE 3.0 5.0 2.1 87.6 NE1015.7- 24.3 26.2 19.5---
2024-02-24 02:10 am E 3.0 4.0 2.1-7.6 NE1015.8- 24.3 26.2 19.5---
2024-02-24 02:00 amESE 3.0 6.0----1016.0 -0.9 24.3 26.2 19.5---
2024-02-24 01:50 amESE 3.0 5.0 1.9 97.3 N1016.1- 24.3 26.2 19.2---
2024-02-24 01:40 am SE 3.0 5.0----1016.2- 24.3 26.2 19.1---
2024-02-24 01:30 amESE 4.0 6.0----1016.2- 24.3 26.2 19.2---
2024-02-24 01:20 amESE 4.0 6.0 2.1 97.4 N1016.1- 24.3 26.2 19.1---
2024-02-24 01:10 am SE 4.0 5.0 2.1-7.4 N1016.2- 24.4 26.2 19.1---
2024-02-24 01:00 am SE 4.0 5.0----1016.4 -0.5 24.3 26.2 18.8---
2024-02-24 12:50 amESE 4.0 6.0 2.1 97.5 NE1016.5- 24.3 26.2 18.6---
2024-02-24 12:40 amESE 4.0 6.0 2.1-7.5 NE1016.5- 24.3 26.2 18.6---
2024-02-24 12:30 amESE 4.0 6.0----1016.7- 24.3 26.2 18.4---
2024-02-24 12:20 am E 4.0 7.0 2.3 87.7NNE1016.7- 24.3 26.2 18.4---
2024-02-24 12:10 am E 4.0 6.0 2.3-7.7NNE1016.8- 24.3 26.2 18.6---
2024-02-24 12:00 am E 4.0 6.0----1016.8 +0.0 24.3 26.2 18.6---
2024-02-23 11:50 pm E 3.0 5.0 2.0 87.4 N1016.8- 24.3 26.2 18.5---

Detailed Wave Summary
for 41043 as of (12:10 am AST)
0410 GMT on 02/25/2024:

These wave data are displayed in rounded times.

     

Click on the graph icon in the table below to see a time series plot of the last five days of that observation.

5-day plot - Significant Wave Height Significant Wave Height (WVHT): 1.7 m
5-day plot - Swell Height Swell Height (SwH): 1.7 m
5-day plot - Swell Period Swell Period (SwP): 9.1 sec
5-day plot - Swell Direction Swell Direction (SwD): E
5-day plot - Wind Wave Height Wind Wave Height (WWH): 0.3 m
5-day plot - Wind Wave Period Wind Wave Period (WWP): 4.0 sec
5-day plot - Wind Wave Direction Wind Wave Direction (WWD): E
5-day plot - Wave Steepness Wave Steepness (STEEPNESS): AVERAGE
5-day plot - Average Wave Period Average Wave Period (APD): 7.8 sec
Previous observations
TIME
(AST)
5-day plot - Wave Height
WVHT
m
5-day plot - Swell Height
SwH
m
5-day plot - Swell Period
SwP
sec
5-day plot - Swell Direction
SwD
 
5-day plot - Wind Wave Height
WWH
m
5-day plot - Wind Wave Period
WWP
sec
5-day plot - Wind Wave Direction
WWD
 
5-day plot - Wave Steepness
STEEPNESS
 
5-day plot - Average Wave Period
APD
sec
2024-02-24 11:36 pm 1.8 1.8 10.0ENE 0.3 3.6 ENE SWELL 8.2
2024-02-24 11:10 pm 1.8 1.7 10.0ENE 0.2 3.7 ESE SWELL 8.2
2024-02-24 10:40 pm 1.7 1.7 9.1ENE 0.3 3.8 ENE AVERAGE 8.0
2024-02-24 10:10 pm 1.8 1.8 10.0NNE 0.2 3.3 ESE SWELL 8.1
2024-02-24 09:40 pm 1.6 1.6 8.3 E 0.2 3.8 ESE AVERAGE 7.9
2024-02-24 09:10 pm 1.7 1.7 9.1 NE 0.3 3.8 E AVERAGE 8.0
2024-02-24 08:40 pm 1.7 1.7 10.0NNE 0.3 3.4 ESE SWELL 7.8
2024-02-24 08:10 pm 1.7 1.7 9.1 NE 0.3 3.7 E AVERAGE 7.8
2024-02-24 07:40 pm 1.8 1.8 11.4 N 0.3 3.8 E SWELL 8.0
2024-02-24 07:10 pm 1.9 1.9 9.1 NE 0.3 3.7 E AVERAGE 8.0
2024-02-24 06:40 pm 2.0 2.0 9.1ENE 0.3 3.8 E AVERAGE 8.1
2024-02-24 06:10 pm 1.8 1.8 10.0NNE 0.3 4.0 ENE SWELL 7.9
2024-02-24 05:36 pm 2.0 2.0 11.4- 0.3 3.2 ESE SWELL 8.3
2024-02-24 05:10 pm 1.9 1.8 8.3 NE 0.3 4.0 ENE AVERAGE 7.8
2024-02-24 04:36 pm 1.8 1.8 11.4 N 0.3 3.6 ESE SWELL 8.0
2024-02-24 04:10 pm 1.9 1.8 9.1 NE 0.3 4.0 E AVERAGE 7.7
2024-02-24 03:40 pm 1.9 1.9 11.4 N 0.3 3.7 E SWELL 7.9
2024-02-24 03:10 pm 1.9 1.9 10.0 N 0.3 4.0 ESE SWELL 7.9
2024-02-24 02:40 pm 1.8 1.8 9.1ENE 0.3 4.0 ESE AVERAGE 7.6
2024-02-24 02:10 pm 1.8 1.8 9.1 NE 0.3 3.4 ESE AVERAGE 7.8
2024-02-24 01:40 pm 2.0 1.9 8.3ENE 0.3 4.0 E AVERAGE 7.8
2024-02-24 01:10 pm 1.8 1.8 9.1 NE 0.3 3.6 E AVERAGE 7.5
2024-02-24 12:40 pm 1.8 1.7 9.1ENE 0.4 3.7 ESE AVERAGE 7.4
2024-02-24 12:10 pm 2.0 1.9 9.1 NE 0.4 3.3 SE AVERAGE 7.6
2024-02-24 11:40 am 1.7 1.7 9.1ENE 0.4 3.4 ESE AVERAGE 7.1
2024-02-24 11:02 am 1.9 1.9 9.1ENE 0.4 3.7 ESE AVERAGE 7.5
2024-02-24 10:36 am 1.9 1.9 9.1NNE 0.4 3.2 ESE AVERAGE 7.3
2024-02-24 10:10 am 2.0 2.0 9.1ENE 0.5 4.2 ENE AVERAGE 7.6
2024-02-24 09:32 am 2.0 1.9 8.3 E 0.5 3.2 ESE AVERAGE 7.3
2024-02-24 09:06 am 1.9 1.8 9.1NNE 0.4 3.4 ESE AVERAGE 7.4
2024-02-24 08:40 am 2.0 2.0 9.1 NE 0.4 4.2 N AVERAGE 7.7
2024-02-24 08:10 am 2.0 2.0 9.1NNE 0.4 2.9 ESE AVERAGE 7.4
2024-02-24 07:40 am 1.9 1.9 9.1 NE 0.4 4.2 NE AVERAGE 7.4
2024-02-24 07:10 am 1.8 1.8 10.8 N 0.3 3.8 N SWELL 7.5
2024-02-24 06:40 am 1.9 1.8 9.1 NE 0.4 4.3 NNE AVERAGE 7.5
2024-02-24 06:10 am 1.9 1.9 8.3 NE 0.3 3.7 N AVERAGE 7.4
2024-02-24 05:32 am 1.9 1.8 8.3ENE 0.3 3.4 NNE AVERAGE 7.6
2024-02-24 05:06 am 2.0 2.0 10.0 N 0.3 3.3 NNE AVERAGE 7.6
2024-02-24 04:40 am 2.2 2.2 8.3ENE 0.3 3.7 NNE STEEP 7.6
2024-02-24 04:10 am 2.0 2.0 8.3 N 0.3 3.6 N AVERAGE 7.5
2024-02-24 03:40 am 2.1 2.0 8.3 N 0.3 4.0 NNW AVERAGE 7.6
2024-02-24 03:10 am 2.0 2.0 9.1 N 0.3 3.3 NNE AVERAGE 7.5
2024-02-24 02:36 am 2.2 2.2 9.1NNE 0.3 4.0 N AVERAGE 7.5
2024-02-24 02:10 am 2.1 2.1 8.3 NE 0.3 3.8 N AVERAGE 7.6
2024-02-24 01:40 am 1.9 1.9 9.1 N 0.3 4.0 NNW AVERAGE 7.3
2024-02-24 01:10 am 2.1 2.1 9.1 N 0.3 3.8 NNW AVERAGE 7.4
2024-02-24 12:40 am 2.1 2.0 9.1 NE 0.3 3.4 NNW AVERAGE 7.5
2024-02-24 12:10 am 2.3 2.3 8.3NNE 0.3 4.0 NNW STEEP 7.7

Plot of wave energy versus frequency (and period)